GFSNGP_500_rhum_015.txt.gz
RH
30 29 26 22 21 20 19 20 20 22 22 24 22 22 22 22 22 23 22 22 24 36 46 50 50 49 49 51 50 49 67 71 74 75 77 71 67 59 51 49 50 42 22 10
26 25 23 24 24 22 24 23 22 23 22 23 23 23 23 23 23 24 24 24 25 30 45 55 56 54 52 50 46 59 78 81 82 83 82 75 57 53 52 52 34 20 9 10
22 23 21 18 22 23 23 23 22 21 20 19 20 22 25 25 25 24 25 26 28 30 38 51 57 55 50 44 46 86 93 94 96 91 77 62 57 57 53 30 18 9 10 12
21 24 18 18 21 25 25 24 22 20 21 23 25 25 26 26 25 25 27 28 33 35 37 54 59 52 44 47 89 100 100 100 94 77 69 63 63 47 30 17 9 11 12 14
17 17 15 17 21 23 24 24 29 31 29 28 27 26 28 26 26 28 30 34 44 43 52 62 55 53 62 95 100 100 99 90 82 73 71 65 49 30 16 9 11 13 14 16
18 17 13 15 19 20 21 18 30 27 26 26 26 25 27 28 30 33 37 52 48 60 64 57 71 84 99 100 100 96 100 93 83 74 69 54 37 18 9 10 15 14 18 18
11 12 10 22 26 26 26 25 24 27 31 34 39 40 40 40 41 48 59 54 68 61 66 84 94 99 100 100 95 100 99 86 80 74 63 40 20 10 10 16 18 17 21 26
13 12 14 20 23 24 24 29 30 34 43 48 48 47 44 45 64 60 56 62 51 65 80 86 77 96 100 98 100 100 100 97 74 67 47 24 11 10 14 20 19 25 28 35
9 11 15 17 20 20 24 29 37 37 45 45 44 46 57 61 58 63 61 49 52 68 80 84 93 100 100 100 100 100 100 87 63 59 32 14 10 13 19 21 26 32 38 55
10 24 22 18 16 17 19 27 38 43 45 47 52 58 56 62 66 60 50 49 79 76 88 95 98 100 100 100 100 100 88 64 59 48 19 9 13 16 23 26 36 40 42 43
13 18 18 22 28 32 38 41 45 51 57 70 72 73 68 49 51 70 82 86 99 98 100 99 96 100 100 99 100 93 70 61 57 26 10 12 16 22 28 36 45 49 50 45
23 32 32 41 54 60 68 82 84 81 85 84 82 61 55 81 89 96 98 100 100 90 99 99 100 100 100 100 99 84 67 61 34 12 11 16 19 25 37 42 48 55 57 54
42 42 49 63 74 77 78 82 82 79 73 65 67 76 90 93 98 100 100 96 91 100 100 100 100 100 100 100 96 74 68 45 14 11 16 18 21 29 44 47 52 58 63 87
53 52 58 62 66 71 69 64 56 63 74 76 83 90 88 88 91 92 100 100 100 100 100 100 100 100 100 97 81 77 56 15 13 14 20 20 24 38 48 57 64 73 86 97
63 64 61 58 55 54 60 77 81 79 81 87 95 97 98 100 100 100 100 100 100 100 100 100 100 100 99 89 83 51 16 16 16 22 21 24 30 45 53 65 72 85 92 90
49 48 61 78 79 78 78 79 86 89 90 92 96 100 100 100 100 100 100 100 100 100 100 100 100 98 95 78 35 15 16 18 21 26 24 31 38 52 58 69 77 83 87 87
65 84 88 87 88 89 89 90 94 99 100 100 100 99 98 98 100 100 100 100 100 100 100 100 100 92 52 21 15 17 17 22 29 28 29 38 44 60 70 71 74 80 86 89
92 89 85 84 82 81 81 78 73 73 87 96 94 83 76 92 100 100 100 100 100 100 100 97 74 28 18 18 19 19 21 28 33 30 34 49 54 69 80 86 90 96 95 93
83 85 81 69 58 56 59 66 74 79 73 70 77 100 100 100 100 100 100 100 100 95 66 31 24 20 22 24 21 24 26 33 36 31 39 56 70 78 89 93 96 96 96 98
71 67 67 69 71 69 72 73 72 73 91 100 100 100 100 100 100 100 99 86 55 45 22 17 21 27 27 26 25 25 32 38 37 30 38 58 81 86 89 96 95 97 100 100
73 72 71 67 70 76 70 78 92 100 100 100 100 100 100 100 93 70 38 19 15 16 19 29 35 33 30 29 25 32 45 41 38 30 35 54 77 94 95 96 97 97 97 100
63 51 41 60 54 45 70 90 100 100 100 100 96 82 54 25 18 18 17 15 14 19 25 38 41 35 36 34 32 45 47 42 39 31 33 51 66 87 94 96 96 98 96 93
21 67 99 100 100 100 100 100 99 86 63 43 32 27 21 18 17 16 15 18 22 30 34 37 40 45 45 36 39 48 48 45 39 31 35 49 63 85 97 98 98 97 94 85
36 62 72 56 49 76 95 75 60 46 40 34 28 27 24 19 18 18 18 24 31 35 38 38 33 38 46 40 45 50 50 48 43 34 37 53 68 86 96 97 100 98 96 94
10 14 26 48 84 96 74 51 46 33 32 37 38 34 24 21 20 19 26 28 27 28 31 36 38 36 40 46 50 50 50 51 49 41 40 60 75 90 100 100 100 100 100 100
24 50 76 98 100 68 50 48 52 56 52 49 39 26 19 18 22 26 27 31 38 43 44 46 49 49 48 49 54 53 51 52 52 50 44 57 78 97 100 100 100 100 100 97
70 88 97 99 96 83 75 73 67 66 61 38 23 18 17 21 24 28 31 31 29 27 26 24 25 30 36 41 45 46 45 49 52 54 52 59 78 95 99 100 100 100 99 92

GFSNGP_500_rhum_021.txt.gz
RH
23 32 33 24 28 28 23 18 16 18 20 20 22 19 21 21 22 22 22 22 23 28 32 34 32 32 33 35 35 42 56 65 66 64 80 92 90 89 90 92 98 100 97 81
25 27 26 25 28 28 26 26 24 24 22 27 24 23 23 24 26 28 32 35 38 38 36 34 33 35 38 42 48 66 65 68 64 61 92 100 97 94 94 95 92 96 92 95
24 28 25 18 26 28 27 26 26 25 26 25 21 23 26 29 30 33 36 37 36 36 38 44 49 52 52 58 67 69 68 66 66 97 100 100 100 97 91 94 100 99 93 81
22 26 23 23 26 28 26 27 29 24 27 28 22 27 25 28 29 31 34 40 51 60 62 60 58 56 67 70 70 65 60 75 94 96 97 100 99 100 99 100 100 99 96 83
20 21 20 19 16 20 20 22 17 16 20 22 19 20 26 22 33 42 47 51 53 56 58 58 70 70 68 61 55 64 83 89 77 88 100 100 100 100 100 100 99 98 97 63
21 17 11 9 12 10 9 10 6 11 13 14 18 19 32 24 28 31 36 40 46 51 59 72 76 71 54 70 91 97 79 80 99 100 100 100 100 100 100 100 99 100 76 59
7 7 7 7 7 7 8 9 9 10 10 11 14 20 21 22 26 32 40 46 55 71 86 83 69 66 79 83 74 76 93 98 100 100 100 100 100 100 100 100 99 99 71 17
10 10 9 9 8 7 7 6 7 8 10 11 14 19 24 31 46 65 76 75 80 71 56 63 73 84 75 82 83 82 96 100 100 100 100 100 100 100 100 99 92 58 21 11
11 11 9 8 7 6 6 7 9 11 17 21 28 36 46 60 78 79 67 60 54 58 72 74 75 82 96 98 81 90 100 100 100 100 100 100 100 100 100 87 51 26 14 13
9 8 7 6 6 5 7 10 18 24 31 38 47 59 72 66 61 56 49 54 70 73 77 80 84 90 91 78 91 100 100 100 100 100 100 100 100 98 89 54 26 13 14 19
8 8 7 8 6 10 20 24 34 44 47 48 54 53 50 46 48 61 64 68 75 80 83 86 84 87 86 100 100 100 100 100 100 100 100 100 92 65 40 15 13 15 21 23
7 7 10 14 17 26 35 43 40 36 37 35 40 40 46 68 67 69 68 71 78 81 79 80 91 100 100 100 100 100 100 100 100 100 99 92 83 40 21 15 18 22 26 25
10 15 20 30 36 41 37 33 28 26 35 47 50 60 77 76 74 76 77 72 65 68 79 100 100 100 100 100 100 100 100 100 100 91 54 25 16 16 18 20 20 27 31 31
28 38 38 43 34 32 28 25 38 61 61 62 70 78 80 80 78 71 69 68 72 86 91 96 100 100 100 100 100 100 100 96 71 39 16 13 16 20 23 23 24 34 33 38
40 38 37 38 34 28 28 41 67 76 79 81 82 80 76 75 75 73 58 52 66 69 73 73 85 95 100 100 100 91 61 25 17 15 13 14 21 28 31 31 34 41 40 44
46 45 36 31 32 34 43 60 77 80 80 79 78 79 82 76 53 34 40 27 21 12 15 42 77 99 98 67 37 28 22 19 17 15 15 23 31 33 41 39 42 45 44 60
49 55 56 53 55 72 82 85 87 86 82 83 85 74 48 23 10 9 12 12 13 44 80 84 70 56 44 36 33 26 24 26 20 14 19 25 31 36 45 44 45 48 44 68
65 78 87 90 90 93 94 90 89 92 87 72 49 22 8 6 7 8 9 13 19 21 35 49 53 49 42 42 43 32 30 28 18 18 27 31 37 38 42 46 47 49 44 59
91 97 100 100 100 96 97 95 85 69 44 18 7 6 7 8 9 9 12 25 44 52 49 46 37 41 57 62 44 33 29 19 19 27 34 39 41 46 42 48 49 50 44 52
100 100 100 100 100 95 81 63 36 14 7 7 8 8 9 10 11 22 44 54 40 38 39 50 66 71 57 36 33 27 18 20 26 30 34 43 46 49 50 52 51 52 47 50
100 100 100 92 78 54 26 12 7 7 8 8 9 10 11 13 32 59 81 76 64 68 79 78 65 47 40 40 25 19 20 25 28 32 34 41 48 51 55 59 56 54 52 49
97 87 76 50 19 9 8 7 8 8 9 10 10 11 15 29 53 71 84 88 88 84 66 54 51 48 37 21 20 24 23 20 19 20 24 30 36 45 56 62 62 58 57 56
74 49 20 8 7 8 8 9 9 10 11 12 15 23 37 49 69 85 82 77 64 53 50 47 36 21 18 20 19 16 13 15 17 18 21 25 28 31 44 58 66 64 61 63
16 8 8 8 8 9 10 10 11 12 14 21 33 43 57 75 79 71 65 60 55 49 36 17 16 18 16 12 11 12 14 16 20 23 24 26 30 32 36 46 61 66 68 70
8 9 10 10 10 11 12 13 14 20 36 54 65 72 77 71 63 59 57 52 39 20 16 16 16 12 11 14 15 16 18 19 21 23 25 26 30 34 36 39 48 61 71 80
11 11 12 12 14 14 17 22 38 66 81 85 88 83 69 59 63 61 46 26 18 16 17 14 10 11 12 12 12 14 15 16 17 21 26 31 34 36 37 38 43 53 68 84
13 14 14 16 20 31 49 72 84 87 91 94 90 75 74 73 53 30 20 17 18 18 11 10 10 11 12 14 15 16 18 18 18 20 23 29 36 43 46 44 44 52 68 85

GFSNGP_500_rhum_024.txt.gz
RH
11 21 76 99 63 24 23 24 27 22 20 20 73 65 24 18 18 20 27 29 34 38 35 30 34 35 39 48 56 59 59 62 76 75 84 65 66 79 80 77 82 89 97 100
11 18 20 27 23 22 26 30 31 26 25 27 33 21 24 22 25 25 29 38 40 45 45 43 48 52 56 58 56 56 67 75 71 69 63 77 79 70 72 86 86 97 100 100
13 18 24 23 30 28 28 32 33 30 28 27 28 26 13 26 32 27 28 31 36 38 50 56 50 43 48 56 60 71 74 68 62 74 77 76 78 81 96 93 98 100 100 100
14 24 24 27 29 30 26 27 29 28 25 24 24 24 24 20 14 22 19 26 31 36 37 35 44 45 49 65 80 78 68 67 83 80 81 78 96 97 100 100 100 100 100 100
18 25 24 22 21 24 24 28 21 17 19 23 14 16 14 11 13 16 16 18 21 27 32 44 56 67 86 87 68 65 72 78 78 98 89 75 90 100 100 100 100 100 100 99
24 25 22 20 19 16 12 12 6 11 9 10 11 11 12 13 12 15 20 27 32 50 72 81 80 83 71 67 72 74 73 88 80 75 98 100 99 100 100 100 100 100 100 100
14 9 7 7 8 9 8 9 9 8 7 7 8 9 9 12 19 30 32 39 65 70 73 61 56 56 68 71 73 85 95 100 98 100 100 100 100 100 100 100 100 100 99 88
10 10 10 10 8 9 9 8 7 6 6 6 9 17 22 27 30 51 58 52 52 56 52 51 63 73 78 86 93 98 86 84 100 100 97 100 100 100 100 100 100 94 61 20
11 10 8 8 8 7 6 6 6 6 8 11 18 24 33 42 44 52 52 51 46 53 70 69 68 75 79 78 72 67 83 100 100 100 100 100 100 100 100 99 73 27 18 14
10 12 11 8 8 6 6 7 6 10 15 20 33 43 42 35 32 36 38 45 76 74 70 72 75 71 68 70 73 80 100 100 100 100 100 100 100 100 93 57 28 14 13 17
12 13 12 12 7 7 7 6 11 20 25 39 39 32 27 32 50 52 52 63 63 66 70 71 71 72 71 72 96 100 100 100 99 100 100 100 100 77 32 19 14 15 24 26
15 10 14 10 9 8 7 13 27 38 37 32 27 24 42 59 61 63 64 63 64 68 73 76 73 54 53 69 69 75 60 61 96 100 100 84 48 23 20 18 15 23 30 33
16 16 13 11 10 11 19 34 34 35 36 29 26 38 65 71 74 77 76 74 77 81 75 51 36 27 12 10 9 12 36 79 100 62 39 31 26 25 24 23 16 23 34 42
21 19 13 13 15 27 38 36 41 37 29 31 41 63 77 81 80 80 83 85 76 54 28 11 6 6 6 7 8 19 51 50 45 44 44 44 35 29 30 21 18 26 33 41
26 25 21 28 34 39 44 44 41 45 45 59 80 86 82 84 87 87 78 57 32 12 6 6 7 7 8 10 16 27 44 51 44 43 56 56 36 31 22 19 28 33 39 45
32 29 46 49 52 50 54 61 71 77 83 84 85 88 90 89 82 64 38 14 7 6 6 7 8 9 15 28 42 43 40 43 55 67 53 38 36 24 19 24 32 40 45 48
36 51 58 60 61 61 65 80 84 89 91 92 94 92 87 70 43 18 9 7 7 8 8 9 12 28 40 33 32 47 63 74 68 49 44 42 28 22 26 28 32 44 48 52
65 64 63 65 66 74 92 98 99 100 99 95 90 78 54 27 12 7 7 8 8 9 10 15 28 55 64 67 78 82 77 64 54 46 35 23 23 28 32 35 37 43 48 52
67 67 71 76 90 100 100 100 100 100 94 86 61 30 15 9 7 8 9 9 10 12 21 40 75 84 88 84 82 72 60 49 34 22 20 21 24 27 28 30 35 44 52 54
78 83 97 100 100 100 100 100 98 89 71 39 15 9 7 7 8 10 10 11 14 26 42 71 75 78 74 66 57 48 36 22 16 18 20 19 16 15 18 20 23 31 47 59
100 100 100 100 100 100 98 87 74 43 16 8 8 8 8 10 11 12 13 21 41 53 70 74 70 68 60 50 44 31 18 16 17 14 12 14 15 16 19 22 25 28 36 55
100 100 100 100 99 91 68 36 14 8 8 8 9 10 11 12 13 19 38 52 58 70 74 62 55 54 51 39 24 17 16 14 11 12 14 16 18 20 23 26 28 30 36 47
100 100 100 88 53 25 12 8 8 9 10 10 11 13 14 16 29 44 60 78 91 86 68 62 59 47 28 18 17 17 11 9 11 13 13 14 17 20 22 25 29 32 34 39
99 68 27 13 9 8 8 10 10 11 13 13 14 17 23 39 58 69 82 86 79 73 64 51 35 21 17 19 14 9 10 11 12 13 15 16 16 16 18 21 27 32 34 36
13 9 8 8 9 10 11 12 12 14 16 19 30 36 51 63 75 78 67 58 56 52 40 25 18 19 20 12 10 10 9 8 10 11 12 13 17 20 19 22 28 37 42 38
8 9 10 11 12 13 14 15 17 21 34 52 62 68 72 67 58 54 54 55 42 25 20 18 21 18 12 11 10 9 9 10 11 12 12 14 17 22 26 27 31 38 48 53
11 12 13 14 16 16 19 24 41 64 74 78 73 63 61 60 62 61 43 26 22 20 19 22 18 13 13 12 10 10 10 10 11 13 16 17 20 23 28 32 37 46 60 66

GFSNGP_500_rhum_030.txt.gz
RH
18 14 13 14 11 13 20 35 64 20 20 34 39 24 18 15 14 12 13 13 13 31 8 6 7 8 18 54 83 87 83 69 54 59 74 70 61 63 63 62 61 65 82 92
14 12 12 12 11 9 25 100 86 35 35 35 32 26 23 22 23 20 17 13 8 8 10 12 10 13 45 31 76 79 56 57 67 72 61 57 63 57 59 69 67 70 78 86
9 10 9 9 8 11 24 33 38 31 30 31 31 29 28 30 31 28 25 21 22 23 16 12 11 15 22 35 45 56 61 62 58 54 59 62 66 68 67 59 92 100 97 99
29 28 19 15 12 14 20 27 35 36 34 35 36 37 35 29 23 18 15 14 12 10 10 13 19 27 39 51 83 79 74 75 68 75 71 69 66 64 83 100 100 100 100 100
42 36 26 20 14 16 32 34 34 33 32 31 29 26 20 13 12 12 12 10 10 11 15 21 32 40 42 61 64 62 59 74 85 96 72 66 61 95 100 99 100 100 100 100
36 38 35 24 16 23 31 27 27 27 25 23 16 12 12 9 9 8 8 8 11 15 20 34 38 35 31 38 50 60 93 75 71 85 86 93 100 89 100 99 88 22 53 34
33 24 18 21 19 18 22 23 26 20 15 16 13 10 8 7 7 7 8 10 16 27 33 34 32 30 43 57 62 80 84 84 80 78 77 59 75 72 15 10 8 9 14 30
31 28 23 23 24 21 16 11 12 13 11 9 8 7 7 7 7 7 9 18 30 33 34 33 32 39 59 73 82 82 80 81 76 61 36 10 6 7 7 7 8 14 26 44
12 12 12 11 11 11 12 13 12 10 10 9 8 9 10 10 9 11 20 30 33 39 38 32 35 54 78 85 83 82 79 68 48 23 8 7 6 6 6 8 13 27 38 39
14 12 10 10 12 12 12 12 11 11 10 11 12 12 12 12 15 22 30 35 41 41 37 39 45 68 88 85 83 80 67 45 20 8 7 6 6 7 9 13 25 33 34 46
13 14 15 14 13 12 12 12 11 10 11 14 15 15 16 19 23 29 40 46 50 56 58 63 80 86 83 84 79 67 47 24 10 7 6 7 8 10 12 22 33 42 60 74
19 19 18 16 14 13 12 11 11 11 14 16 19 24 26 25 31 44 51 58 62 75 87 94 90 87 87 80 69 44 21 11 7 7 8 9 10 14 27 40 61 81 82 70
20 19 19 19 19 17 16 15 16 17 20 26 34 35 31 38 51 59 62 65 78 90 97 96 91 89 85 71 41 16 10 7 7 8 9 11 14 24 39 66 76 69 76 65
22 22 21 21 20 20 19 19 22 27 34 48 45 37 43 57 64 65 68 79 95 100 97 93 93 85 68 35 13 8 7 8 9 10 12 16 26 36 46 49 46 49 57 44
33 26 21 20 20 22 23 27 34 46 58 50 39 46 65 67 68 72 85 97 99 97 96 94 81 59 29 11 8 8 8 9 10 13 15 23 36 54 60 58 57 49 38 24
27 24 23 25 27 30 35 47 60 63 51 46 65 76 73 76 86 95 100 100 100 96 90 72 39 13 9 8 8 9 10 12 15 20 34 48 65 67 59 48 38 27 19 18
38 34 33 34 42 55 70 74 62 52 67 81 80 80 88 92 98 100 100 100 96 86 51 16 8 8 8 9 10 11 13 14 18 30 50 59 50 44 39 27 17 18 18 13
61 61 63 74 81 86 76 61 69 86 86 86 91 95 100 100 100 100 100 97 73 33 12 8 8 9 10 11 14 16 18 26 40 49 47 42 36 23 17 17 19 14 10 10
84 84 91 97 94 80 80 96 98 95 94 94 99 100 100 99 100 100 90 49 18 9 8 10 11 13 15 16 21 29 36 40 42 43 35 24 18 17 17 18 12 10 10 10
97 99 92 84 91 100 100 97 98 97 99 100 100 100 100 100 98 76 34 11 9 10 11 13 14 15 19 29 35 41 44 39 37 31 20 16 15 16 20 14 11 10 10 11
91 92 98 100 100 98 100 100 100 100 100 100 100 100 99 86 40 13 9 10 12 13 14 16 19 30 43 47 49 45 39 37 24 19 18 14 16 22 18 14 13 11 10 10
100 99 98 99 100 100 100 99 100 100 100 100 100 96 65 26 11 11 13 14 15 16 21 34 47 52 56 52 43 38 26 20 22 21 17 18 22 20 16 16 16 14 11 10
98 100 100 99 99 99 99 100 100 100 100 100 78 37 14 12 14 14 16 17 25 43 54 50 48 50 49 46 29 22 24 27 24 20 23 25 20 19 19 18 17 14 13 12
99 100 100 100 100 100 100 100 100 100 83 46 16 13 14 16 20 23 34 47 55 52 49 49 52 53 35 27 28 30 28 25 24 28 24 22 22 20 18 18 15 12 13 14
100 100 100 100 100 100 100 100 91 57 24 15 14 16 19 30 46 53 57 52 50 55 62 61 40 31 29 35 32 27 28 28 32 29 26 25 21 20 19 14 16 16 13 13
100 100 100 100 100 98 89 61 31 19 15 16 26 36 56 66 69 67 62 61 68 70 50 36 32 34 33 20 18 32 34 36 33 28 25 22 22 19 18 21 16 13 20 25
100 100 99 97 82 58 35 19 14 16 33 52 66 82 88 81 78 86 84 83 63 42 35 34 36 30 11 9 36 42 38 34 28 26 24 23 21 21 24 22 24 27 40 54

GFSNGP_500_rhum_036.txt.gz
RH
58 98 73 55 61 74 55 31 22 13 9 11 13 13 54 29 13 26 26 27 23 24 25 21 31 39 50 48 44 27 42 42 28 24 30 33 36 40 59 80 70 69 81 88
55 71 48 18 20 21 18 12 8 8 8 12 10 18 46 30 23 29 33 30 27 23 19 15 8 8 7 5 5 5 6 12 20 24 31 36 42 89 89 70 69 80 99 100
67 70 39 12 12 12 10 10 9 8 9 10 9 13 54 55 34 30 32 32 29 23 16 8 8 6 5 6 6 6 8 15 22 32 39 42 52 80 74 72 77 100 100 94
37 30 15 12 11 16 25 21 18 17 14 12 10 20 32 36 32 30 28 25 22 13 10 7 6 7 7 7 8 9 14 21 30 40 41 42 42 52 75 95 90 100 85 80
42 18 13 11 22 50 52 37 26 21 17 12 15 25 32 34 29 27 24 20 13 10 8 8 9 9 9 10 12 15 20 28 39 47 49 52 57 81 100 96 92 89 86 74
47 15 8 10 20 23 34 19 35 25 17 15 29 35 34 29 26 24 16 12 10 10 10 10 10 12 14 17 17 20 27 38 51 57 61 70 85 100 98 94 91 88 65 34
40 15 8 18 10 17 21 24 28 30 19 20 29 32 31 26 17 14 12 12 12 11 11 12 16 22 22 21 22 29 42 54 58 63 77 95 99 94 94 91 79 56 32 13
48 18 22 17 11 16 22 21 22 25 20 20 27 24 15 14 13 14 13 13 13 13 15 20 26 28 25 24 27 36 53 60 65 79 97 100 99 95 90 75 49 24 12 9
40 34 37 10 12 13 16 22 23 24 23 18 14 14 14 15 14 14 14 14 15 16 21 28 34 32 29 32 42 55 63 70 83 99 100 92 89 85 71 42 20 10 8 9
30 37 31 11 13 14 14 14 14 14 15 15 16 16 16 16 16 16 16 17 17 21 34 41 42 36 34 42 56 66 74 81 88 87 86 83 79 70 44 17 10 9 10 11
28 32 18 16 18 16 16 15 16 19 20 18 18 18 17 17 16 16 16 19 22 34 50 51 45 39 45 60 71 77 80 83 83 82 78 77 68 40 19 10 10 10 12 12
39 51 28 20 19 21 20 20 21 21 20 20 20 20 20 20 19 19 20 22 33 49 58 54 48 54 69 78 81 82 82 81 79 78 75 66 45 20 10 11 13 14 16 24
61 79 53 30 26 26 27 28 26 24 22 22 23 25 25 23 22 23 26 35 54 67 64 58 63 77 84 85 86 87 87 85 87 79 58 33 14 11 10 12 13 17 26 36
97 93 81 60 37 33 31 30 27 24 24 28 32 32 29 29 32 34 42 65 77 74 69 76 84 90 89 89 90 94 92 93 87 61 36 19 12 11 11 12 12 14 25 29
97 100 100 89 58 45 38 35 34 36 41 42 39 37 42 47 53 67 81 86 82 82 90 94 95 94 96 96 99 100 100 94 66 33 16 12 11 13 16 16 19 20 21 22
95 99 95 94 76 70 62 56 53 54 50 49 57 66 67 76 84 90 92 90 94 100 100 98 97 100 100 100 100 100 100 74 34 19 14 13 16 17 17 19 19 15 15 16
99 98 92 87 80 85 72 68 65 66 71 77 76 82 91 99 100 99 99 100 100 97 99 100 100 100 100 100 100 100 78 46 26 17 16 19 19 19 17 12 12 16 13 6
80 99 100 98 87 84 83 83 82 84 85 89 96 94 97 100 100 100 100 100 100 100 100 100 100 100 100 100 100 92 67 41 24 20 21 20 19 13 12 15 16 11 6 10
96 88 82 70 59 59 68 76 94 99 97 100 100 100 100 100 100 100 100 100 100 100 100 100 100 100 100 100 98 85 65 31 26 25 24 17 13 15 18 16 10 7 9 23
83 72 64 61 60 66 69 100 99 88 100 100 98 99 100 100 100 100 100 100 100 100 100 100 100 100 100 99 93 66 36 32 29 25 16 15 18 20 18 10 8 8 19 33
88 79 79 100 100 100 100 100 98 99 100 100 100 100 100 100 100 100 100 100 100 100 100 100 100 99 98 83 60 43 45 33 24 20 19 22 24 23 16 9 8 12 29 36
99 96 94 96 94 94 95 99 100 99 97 100 100 100 100 100 100 100 100 100 100 100 100 100 97 85 63 52 50 47 34 24 25 24 25 28 26 22 14 10 10 18 34 32
94 100 100 100 99 98 97 90 95 100 100 100 100 100 100 100 100 100 100 100 100 100 97 86 66 50 46 49 39 34 28 32 30 28 31 29 25 16 12 11 12 25 34 24
96 96 96 90 84 92 100 100 100 100 100 100 100 100 100 100 100 100 100 100 96 86 65 51 44 43 42 39 38 39 42 37 29 32 32 29 19 12 13 13 14 27 29 23
88 89 92 99 100 100 100 100 100 100 100 100 100 100 100 100 100 99 93 76 56 45 52 54 47 45 45 53 54 49 42 32 33 35 33 25 14 14 15 15 17 25 25 24
100 100 100 100 100 100 100 100 100 100 100 100 100 100 98 86 67 48 37 39 48 53 46 43 53 58 65 62 51 45 35 35 39 39 32 18 14 15 16 17 21 25 26 28
100 100 100 100 100 100 100 100 100 100 98 92 77 59 42 40 37 42 59 58 46 40 42 54 64 67 56 52 46 39 38 43 44 39 24 16 16 17 19 20 23 27 29 36

GFSNGP_500_rhum_042.txt.gz
RH
26 44 65 58 67 64 62 45 42 39 46 58 48 26 18 11 10 11 10 10 30 31 19 26 30 31 29 26 26 38 39 35 36 22 15 18 11 13 17 18 19 22 29 32
28 36 50 42 40 50 51 41 38 41 22 21 18 12 10 10 10 10 9 12 23 25 36 41 38 31 38 42 41 46 29 10 9 10 10 12 16 17 17 18 21 23 30 49
28 32 47 20 21 40 43 50 32 12 13 15 25 21 15 11 11 10 10 10 21 47 41 40 42 42 38 32 23 13 9 11 10 10 12 14 19 21 22 23 24 28 36 53
43 37 27 16 26 46 42 29 16 16 26 43 49 49 40 30 23 18 13 13 26 33 37 39 41 37 32 20 12 12 12 11 11 13 16 21 27 29 29 29 32 42 56 66
46 24 18 11 29 59 51 15 22 23 19 16 18 22 22 30 22 16 12 17 28 38 39 36 32 21 13 12 13 12 12 13 13 15 22 32 38 39 38 37 44 60 67 78
62 40 13 13 23 37 43 13 48 19 13 13 17 17 17 30 25 16 17 31 38 36 33 25 14 14 14 13 13 13 14 15 18 22 31 42 48 46 45 51 62 68 70 73
66 40 17 16 47 60 49 23 17 20 11 12 15 15 15 23 26 20 24 32 32 24 15 14 14 14 13 14 15 16 17 18 20 28 43 53 53 52 54 62 66 68 75 77
77 62 28 18 34 77 82 42 24 22 10 10 12 15 17 21 22 23 30 26 15 14 14 14 14 15 16 18 19 19 21 24 27 37 50 57 59 60 64 66 68 75 76 76
69 56 67 44 32 48 63 48 32 30 11 10 11 12 16 19 22 21 16 15 15 15 15 16 17 19 20 22 23 23 28 34 46 58 63 65 67 68 64 64 69 72 71 72
93 71 60 75 68 56 43 48 30 29 13 11 12 12 12 12 13 15 16 17 17 17 18 20 22 25 27 28 30 38 44 50 53 62 68 71 68 63 63 64 65 68 71 73
83 99 100 96 95 93 67 38 26 25 21 13 15 15 15 16 18 19 20 20 21 22 24 27 31 33 35 38 47 50 52 57 65 69 68 64 61 62 63 63 68 69 72 80
67 98 99 100 92 86 50 27 25 29 28 17 17 19 20 23 26 27 27 27 27 28 32 36 38 42 49 56 56 61 66 70 68 64 60 61 63 60 65 68 68 75 80 76
76 97 96 99 86 87 60 37 38 45 36 24 21 23 25 26 26 27 30 33 35 36 43 49 55 65 68 72 73 73 69 62 59 60 62 62 64 67 71 73 83 89 93 88
99 100 95 100 100 100 99 92 67 52 58 64 55 44 45 60 72 70 60 64 69 62 64 73 77 80 81 78 74 71 67 62 62 65 66 67 70 74 79 82 87 93 85 76
98 93 91 100 97 90 95 99 97 98 98 98 97 90 89 94 90 91 86 93 92 83 78 84 86 80 76 75 74 73 74 80 80 77 73 75 80 85 88 91 92 84 74 59
95 95 81 85 94 91 97 97 97 97 98 97 94 97 97 96 93 96 100 82 68 69 90 94 95 100 96 84 83 85 98 100 92 88 83 87 89 92 96 94 84 73 52 24
74 90 97 98 96 100 98 87 79 94 92 93 94 96 98 85 100 100 94 92 85 83 100 100 100 100 100 99 99 99 99 96 98 99 98 96 98 100 96 83 71 44 20 16
46 42 34 74 94 91 95 99 96 99 100 99 100 100 100 100 96 93 94 100 100 100 100 100 100 100 100 100 100 100 100 99 100 100 100 100 100 95 83 67 35 19 17 15
27 33 38 54 73 83 84 88 92 98 100 100 100 100 99 100 100 95 100 100 100 100 100 100 100 100 100 100 100 100 100 100 100 100 100 100 94 80 58 27 20 18 17 18
25 28 55 64 70 87 94 91 99 100 100 99 99 100 100 100 94 100 100 100 100 100 100 100 100 100 100 100 100 100 100 100 100 100 98 90 74 51 30 23 20 21 22 24
59 58 50 99 100 100 100 100 100 98 99 100 95 88 89 98 100 100 100 100 100 100 100 100 100 100 100 100 100 100 98 98 98 94 82 56 40 40 30 25 26 27 28 27
97 95 100 100 99 100 99 100 98 98 100 95 97 100 100 100 100 100 100 100 100 100 100 100 100 100 100 100 100 98 98 95 85 63 54 43 35 34 34 33 32 31 30 32
98 91 66 73 90 99 100 100 100 100 100 100 100 100 100 100 100 100 100 100 100 100 100 100 100 100 100 100 100 95 81 63 61 67 67 58 42 39 37 36 33 33 35 46
100 99 99 100 100 100 99 100 100 100 100 100 100 100 100 100 100 100 100 100 100 100 100 100 100 100 99 92 80 65 72 94 92 57 45 48 42 38 38 37 36 40 54 70
100 100 100 100 100 100 100 100 100 100 100 100 100 100 100 100 100 100 100 100 100 100 100 98 94 84 68 48 48 61 49 32 32 38 38 36 37 39 40 41 50 68 83 73
100 100 100 100 100 100 100 100 100 100 100 100 100 100 100 100 100 100 100 100 97 93 84 64 40 26 25 25 25 25 26 28 29 32 36 39 43 50 63 81 92 94 80 48
100 100 100 100 100 100 100 100 100 100 100 100 100 100 100 100 99 96 89 73 50 30 24 24 24 24 23 21 20 21 24 29 37 48 62 77 89 96 100 100 97 73 52 52

GFSNGP_500_rhum_048.txt.gz
RH
59 54 98 69 48 84 77 89 84 58 68 68 90 98 49 57 81 61 30 39 24 12 10 11 16 15 13 16 20 26 53 62 42 49 66 69 84 72 48 22 13 14 14 14
54 38 68 99 93 60 65 62 74 80 95 88 95 93 88 82 46 21 35 25 13 9 7 6 7 8 9 16 31 41 30 31 41 53 72 65 48 20 12 14 13 14 15 16
53 42 61 79 96 84 92 100 100 100 96 87 95 91 80 53 21 9 7 14 26 25 18 13 16 11 17 14 33 39 51 68 78 61 39 24 12 13 13 14 15 17 19 22
82 75 64 49 78 62 72 60 70 91 98 98 86 84 69 36 10 22 20 20 26 39 40 46 36 22 16 13 28 51 58 46 43 35 20 14 15 16 16 18 19 20 24 29
92 90 68 55 67 56 43 30 39 45 63 91 97 99 26 14 19 15 14 14 14 14 20 26 24 20 14 16 31 39 43 42 35 19 16 17 17 18 20 22 22 26 36 44
98 91 81 58 51 49 40 26 26 34 42 84 90 47 16 14 13 11 12 13 12 12 21 27 18 14 14 22 32 38 37 30 16 18 18 17 20 23 23 24 28 36 46 53
89 94 81 65 52 55 40 27 46 54 67 77 34 24 9 12 12 10 10 11 11 11 16 24 18 16 26 35 35 32 17 16 17 17 18 21 23 21 21 27 37 49 57 64
96 93 86 85 73 48 45 43 58 65 91 87 64 22 13 10 9 12 10 9 10 11 14 19 18 19 28 32 22 17 18 18 18 19 20 21 22 24 30 44 56 66 71 71
100 86 78 100 96 87 85 100 63 52 47 59 63 48 29 23 18 17 14 10 10 10 11 16 19 24 26 17 17 17 18 19 20 22 24 25 31 40 49 58 67 76 74 69
99 88 82 82 98 97 94 100 99 84 73 88 66 53 36 50 28 25 19 13 10 10 10 11 13 15 16 17 18 19 20 23 24 26 42 55 57 62 71 77 82 76 73 80
93 100 100 98 96 90 99 87 87 100 100 67 44 33 34 41 44 30 24 21 14 12 13 14 16 17 18 19 22 23 25 27 42 60 78 84 85 81 81 83 89 82 88 93
81 98 100 98 99 98 85 85 94 91 96 84 83 46 43 37 35 34 26 22 20 17 15 15 16 19 20 21 21 26 70 85 85 91 95 83 82 89 97 100 100 100 97 97
94 91 96 95 99 97 91 96 90 91 100 98 83 67 69 69 42 32 28 29 29 26 23 22 23 27 32 38 57 88 100 92 99 100 100 90 100 100 100 100 100 100 100 100
99 93 86 97 96 94 96 98 96 97 97 99 97 87 84 75 78 60 46 52 57 56 57 65 74 83 99 99 100 97 92 91 100 100 98 99 97 100 100 100 100 100 100 100
66 85 97 99 94 94 98 97 94 97 97 98 97 97 100 99 99 92 93 92 98 99 100 100 100 100 100 93 89 94 95 99 98 85 90 99 100 100 100 100 100 100 96 95
34 21 40 66 92 92 99 95 94 91 91 99 97 98 93 96 93 98 100 100 100 99 100 100 98 96 98 100 100 100 100 100 100 100 100 100 100 100 100 100 100 100 100 100
23 23 20 16 16 27 42 76 99 100 98 98 98 99 100 100 100 98 96 99 100 100 100 99 98 100 100 100 100 100 100 100 100 100 100 100 100 100 100 100 100 100 100 100
17 17 14 12 12 14 16 18 33 29 29 38 42 82 88 84 89 91 90 95 100 100 100 100 100 100 100 100 100 100 100 100 100 100 100 100 100 100 100 100 100 100 100 100
13 11 10 10 11 13 14 16 16 17 19 31 34 36 69 40 49 71 80 86 90 93 100 100 100 100 100 100 100 100 100 100 100 100 100 100 100 100 100 100 100 100 100 98
19 16 13 11 10 28 32 15 15 16 18 23 27 30 34 42 50 50 84 100 100 100 100 100 100 100 100 100 100 100 100 100 100 100 100 100 100 100 100 100 100 100 95 66
30 22 19 19 20 23 27 28 28 28 23 32 32 50 71 83 99 100 100 100 100 100 100 100 100 100 100 100 100 100 100 100 100 100 100 100 100 100 100 100 93 65 27 20
83 68 54 46 43 45 50 55 75 98 100 100 100 100 100 100 100 100 100 100 100 100 100 100 100 100 100 100 100 100 100 100 100 100 100 100 100 98 84 51 21 17 17 17
100 100 100 100 100 100 100 100 100 100 100 100 100 100 100 100 100 100 100 100 100 100 100 100 100 100 100 100 100 100 100 100 100 100 99 89 60 25 13 13 14 14 15 15
100 100 100 100 100 100 100 100 100 100 100 100 100 100 100 100 100 100 100 100 100 100 100 100 100 100 100 100 100 100 100 98 84 57 24 10 10 11 12 13 13 12 12 14
100 100 100 100 100 100 100 100 100 100 100 100 100 100 100 100 100 100 100 100 100 100 100 100 100 100 99 94 83 66 40 18 10 9 10 11 12 12 10 10 10 11 13 16
100 100 100 100 100 100 100 100 100 100 100 100 100 100 100 100 100 100 100 100 100 98 94 84 68 48 28 16 10 8 8 9 10 11 10 9 8 8 8 9 11 15 17 18
100 100 100 100 100 100 100 100 100 100 100 100 100 98 95 93 88 81 71 52 31 17 11 10 9 8 8 8 10 11 11 10 9 9 9 10 11 11 12 13 15 16 14 13